#timestamp,LO_Frequency,Hit,StdDev 
1551355215.4,286046986.3,Y
1551355235.3,286046999.5,P
1551355255.1,286046996.9,N
1551355256.0,286046996.9,N
1551355275.8,286047000.8,N
1551355295.7,286047001.8,N
1551355315.5,286047002.2,N
1551355335.3,286046998.2,N
1551355355.2,286047002.9,N
1551355375.0,286046999.5,N
1551355375.9,286046999.5,N
1551355395.8,286046994.1,N
1551355415.6,286046990.1,Y
1551355435.4,286046990.1,P
1551355455.3,286046994.8,N
1551355475.1,286046994.1,N
1551355495.9,286046992.1,N
1551355515.7,286046991.7,N
1551355535.5,286046991.7,N
1551355555.4,286046988.5,Y
1551355575.2,286046997.0,P
1551355595.0,286046999.1,N
1551355596.0,286046999.1,N
1551355615.8,286046992.0,Y
1551355635.6,286046995.6,P
1551355655.5,286046992.8,P
1551355675.3,286046991.9,P
1551355695.1,286046995.5,N
1551355715.9,286046995.0,N
1551355735.7,286046996.2,N
1551355755.6,286046993.8,Y
1551355775.4,286046997.7,P
1551355795.2,286047001.1,N
1551355815.1,286047002.6,N
1551355816.0,286047002.6,N
1551355835.8,286047005.5,N
1551355855.6,286047004.7,N
1551355875.5,286047005.6,N
1551355895.3,286047001.9,N
1551355915.2,286047002.2,N
1551355935.9,286046998.2,N
1551355955.7,286046997.0,N
1551355975.6,286046995.5,N
1551355995.4,286046995.7,N
1551356015.2,286046995.8,N
1551356035.1,286046995.1,N
1551356036.0,286046995.1,N
1551356055.8,286046995.1,N
1551356075.7,286046997.9,N
1551356095.5,286046996.4,N
1551356115.3,286046993.9,N
1551356135.2,286046992.4,N
1551356155.0,286046987.1,Y
1551356155.9,286046987.1,P
1551356175.8,286046989.8,N
1551356195.6,286046987.2,N
1551356215.4,286046990.0,N
1551356235.3,286046994.4,N
1551356255.1,286046996.1,N
1551356275.8,286046993.9,N
1551356295.7,286046996.0,N
1551356315.5,286046992.0,N
1551356335.3,286046992.8,N
1551356355.2,286046995.5,N
1551356375.0,286046990.7,N
1551356375.9,286046990.7,N
1551356395.8,286046988.8,Y
1551356415.6,286046991.8,P
1551356435.4,286046993.2,P
1551356455.3,286046990.0,P
1551356475.1,286046988.2,Y
1551356495.9,286046993.3,P
1551356515.7,286046996.6,P
1551356535.5,286046997.1,N
1551356555.4,286046994.9,N
1551356575.2,286047000.7,N
1551356595.1,286046998.7,N
1551356596.0,286046998.7,N
1551356615.8,286047001.0,N
1551356635.6,286046996.8,N
1551356655.5,286046993.6,N
1551356675.3,286046992.9,N
1551356695.2,286046990.4,Y
1551356715.9,286046995.2,P
1551356735.7,286046998.7,N
1551356755.6,286047002.0,N
1551356775.4,286047001.1,N
1551356795.3,286047001.9,N
1551356815.1,286047002.8,N
1551356816.0,286047002.8,N
1551356835.8,286047003.9,N
1551356855.7,286047001.0,N
1551356875.5,286046995.2,N
1551356895.3,286047000.7,N
1551356915.2,286046996.2,N
1551356935.0,286046992.9,N
1551356935.9,286046992.9,N
1551356955.8,286046989.3,N
1551356975.6,286046987.2,Y
1551356995.4,286046988.5,P
1551357015.3,286046988.5,N
1551357035.1,286046991.1,N
1551357055.8,286046992.0,N
1551357075.7,286046992.9,N
1551357095.5,286046992.2,N
1551357115.4,286046994.0,N
1551357135.2,286046995.7,N
1551357155.0,286046993.7,N
1551357155.9,286046993.7,N
1551357175.8,286046994.6,N
1551357195.6,286046992.4,N
1551357215.4,286046993.9,N
1551357235.3,286046990.6,Y
1551357255.1,286046999.1,P
1551357275.9,286046996.8,N
1551357295.7,286046998.7,N
1551357315.5,286046995.8,N
1551357335.4,286046992.8,Y
1551357355.2,286046993.7,P
1551357375.1,286046995.5,P
1551357376.0,286046995.5,P
1551357395.8,286046997.3,N
1551357415.6,286047000.8,N
1551357435.5,286047002.3,N
1551357455.3,286047003.0,N
1551357475.2,286047002.5,N
1551357495.9,286047005.6,N
1551357515.7,286047001.3,N
1551357535.6,286046995.0,N
1551357555.4,286046997.2,N
1551357575.2,286046996.7,N
1551357595.1,286046999.9,N
1551357596.0,286046999.9,N
1551357615.8,286046996.8,N
1551357635.7,286046998.8,N
1551357655.5,286046995.0,N
1551357675.3,286046995.0,N
1551357695.2,286046995.4,N
1551357715.0,286046995.9,N
1551357715.9,286046995.9,N
1551357735.8,286046997.6,N
1551357755.6,286046996.0,N
1551357775.4,286046994.5,N
1551357795.3,286046994.5,N
1551357815.1,286046990.7,Y
1551357835.9,286046992.6,P
1551357855.7,286046989.5,P
1551357875.5,286046989.8,P
1551357895.4,286046989.4,Y
1551357915.2,286046999.5,P
1551357935.1,286046997.3,N
1551357936.0,286046997.3,N
1551357955.8,286047000.6,N
1551357975.6,286047000.7,N
1551357995.5,286046998.1,N
1551358015.3,286046995.1,N
1551358035.1,286046996.3,N
1551358055.9,286046996.1,N
1551358075.7,286046997.4,N
1551358095.5,286046998.5,N
1551358115.4,286046997.0,N
1551358135.2,286047000.8,N
1551358155.1,286047001.5,N
1551358156.0,286047001.5,N
1551358175.8,286047004.6,N
1551358195.6,286047002.2,N
1551358215.5,286047002.3,N
1551358235.3,286047002.3,N
1551358255.1,286046999.9,N
1551358275.9,286046998.2,N
1551358295.7,286046999.6,N
1551358315.6,286047001.1,N
1551358335.4,286046996.5,N
1551358355.2,286046995.6,N
1551358375.1,286046995.4,N
1551358376.0,286046995.4,N
1551358395.8,286046996.3,N
1551358415.6,286046992.8,N
1551358435.5,286046991.7,N
1551358455.3,286046993.8,N
1551358475.2,286046989.8,Y
1551358495.9,286046990.3,P
1551358515.7,286046992.0,N
1551358535.6,286046992.6,N
1551358555.4,286046993.3,N
1551358575.2,286046993.7,N
1551358595.1,286046996.3,N
1551358596.0,286046996.3,N
1551358615.8,286046994.4,N
1551358635.7,286046991.2,Y
1551358655.5,286046992.4,P
1551358675.3,286046990.6,P
1551358695.2,286046992.4,P
1551358715.0,286046992.1,Y
1551358715.9,286046992.1,P
1551358735.8,286047000.1,N
1551358755.6,286047004.3,N
1551358775.4,286047003.5,N
1551358795.3,286046999.7,N
